Regional Weather Roundup
Issued by NWS

Home | Current Version | Previous Version | Text Only | Print | Product List | Glossary On
Versions: 1 2 3 4 5 6 7 8 9 10 11 12 13 14 15 16 17 18 19 20 21 22 23 24 25 26 27 28 29 30 31 32 33 34 35 36 37 38 39 40 41 42 43 44 45 46 47 48 49 50
000
ASUS44 KOUN 221510
RWROK

WEATHER ROUNDUP FOR OKLAHOMA
NATIONAL WEATHER SERVICE NORMAN OK
1000 AM CDT MON SEP 22 2014

NOTE: "FAIR" INDICATES FEW OR NO CLOUDS BELOW 12,000 FEET WITH NO
      SIGNIFICANT WEATHER AND/OR OBSTRUCTIONS TO VISIBILITY.

OKZ001>007-009>012-014-015-017-221600-
NORTHWEST OKLAHOMA AND THE PANHANDLE

CITY           SKY/WX    TMP DP  RH WIND       PRES   REMARKS
GAGE           SUNNY     66  48  52 SE13      30.33R
ENID/WOODRING  MOSUNNY   68  52  56 E12G17    30.30S
$$

OKZ016-021>023-033>039-044-045-221600-
SOUTHWEST OKLAHOMA

CITY           SKY/WX    TMP DP  RH WIND       PRES   REMARKS
LAWTON/REGL    SUNNY     70  51  51 E12       30.28R
LAWTON/FT SILL SUNNY     71  51  49 E12       30.28R
FREDERICK      PTSUNNY   69  54  58 E14       30.26R
CLINTON        PTSUNNY   68  48  48 E10       30.33R
HOBART         CLOUDY    67  50  54 E10       30.31R
ALTUS AFB      PTSUNNY   71  49  45 E14       30.29S
$$

OKZ018>020-024>031-221600-
CENTRAL OKLAHOMA

CITY           SKY/WX    TMP DP  RH WIND       PRES   REMARKS
OKLAHOMA CITY  MOSUNNY   70  48  45 E10       30.29S
OKC/WILEY POST SUNNY     68  51  54 E8        30.30R
OKC/TINKER AFB SUNNY     69  50  51 E9        30.29S
STILLWATER     SUNNY     69  51  52 E8        30.31R
GUTHRIE        SUNNY     67  51  56 E12       30.30S
$$

OKZ008-013-054>072-221600-
NORTHEAST OKLAHOMA

CITY           SKY/WX    TMP DP  RH WIND       PRES   REMARKS
TULSA          MOSUNNY   65  54  67 E5        30.31S
TULSA/JONES    SUNNY     68  53  58 E6        30.30S
PONCA CITY     SUNNY     67  52  58 E8        30.31S
BARTLESVILLE   SUNNY     63  54  72 E3        30.33R
MUSKOGEE       SUNNY     68  55  63 E7        30.31R
$$

OKZ032-040>043-046>053-073>077-221600-
SOUTH CENTRAL/SOUTHEAST OKLAHOMA

CITY           SKY/WX    TMP DP  RH WIND       PRES   REMARKS
ARDMORE/DWNTWN SUNNY     70  52  52 E6        30.26R
MCALESTER      MOSUNNY   70  54  56 VRB6      30.28R
$$




USA.gov is the U.S. government's official web portal to all federal, state and local government web resources and services.